Date,TemperatureHighF,TemperatureAvgF,TemperatureLowF,DewpointHighF,DewpointAvgF,DewpointLowF,HumidityHigh,HumidityAvg,HumidityLow,PressureMaxIn,PressureMinIn,WindSpeedMaxMPH,WindSpeedAvgMPH,GustSpeedMaxMPH,PrecipitationSumIn
2013-1-1,16.8,8.0,0.1,6.9,1.5,-5.2,84,74,61,30.46,30.31,8,0,8,0.00
2013-1-2,29.4,21.3,8.9,26.3,16.0,4.0,89,80,70,30.31,30.16,16,3,17,0.00
2013-1-3,30.7,20.9,10.4,26.8,15.4,6.2,87,79,69,30.49,30.27,18,2,19,0.00
2013-1-4,37.2,25.7,12.3,25.6,19.1,8.6,92,76,62,30.44,30.28,22,6,22,0.00
2013-1-5,38.6,31.1,24.1,32.6,25.8,19.7,88,81,72,30.29,30.05,27,7,27,0.00
2013-1-6,28.6,22.4,15.8,21.1,16.1,10.0,92,76,62,30.41,30.17,21,3,21,0.00
2013-1-7,45.8,34.1,23.9,30.4,24.8,18.4,82,69,52,30.34,30.10,31,8,31,0.00
2013-1-8,46.2,37.2,28.1,34.4,29.8,23.6,85,75,61,30.16,29.95,22,7,25,0.00
2013-1-9,46.3,37.2,30.9,35.3,30.9,26.6,88,78,62,30.52,30.15,22,2,22,0.00
2013-1-10,43.1,36.6,32.3,37.1,31.4,26.6,95,82,58,30.49,29.79,16,3,16,0.22
2013-1-11,54.6,46.3,37.1,47.4,42.9,35.8,96,88,73,29.82,29.56,37,10,37,0.02
2013-1-12,53.7,27.6,17.1,45.1,19.2,8.7,82,70,63,30.20,29.62,32,7,32,0.00
2013-1-13,20.1,14.6,9.7,10.2,6.9,3.7,83,71,61,30.45,30.12,19,3,19,0.00
2013-1-14,30.2,17.5,7.1,14.2,8.9,3.0,85,70,45,30.62,30.45,13,1,13,0.00
2013-1-15,34.4,23.2,14.4,18.6,13.2,9.2,84,67,43,30.52,30.19,21,3,21,0.00
2013-1-16,47.2,33.5,20.9,34.6,24.2,11.9,85,69,60,30.29,29.98,22,8,22,0.00
2013-1-17,36.2,26.2,17.0,25.6,17.7,12.2,84,71,50,30.56,30.29,14,1,14,0.00
2013-1-18,56.6,40.9,20.9,35.3,29.8,15.8,84,66,44,30.47,29.97,37,11,37,0.00
2013-1-19,55.2,41.5,19.3,34.8,30.1,7.2,78,65,44,30.34,29.89,29,8,30,0.00
2013-1-20,19.2,13.6,8.3,10.1,6.5,2.5,81,73,60,30.51,30.33,21,2,21,0.00
2013-1-21,9.1,4.4,-0.8,2.5,-3.5,-10.1,78,69,62,30.58,30.47,25,4,25,0.00
2013-1-22,15.9,9.0,0.3,6.5,0.3,-5.6,78,68,56,30.60,30.45,11,1,11,0.00
2013-1-23,29.2,18.1,7.3,19.2,9.0,-2.0,79,67,57,30.65,30.31,26,7,26,0.00
2013-1-24,21.9,12.5,4.0,9.3,-0.3,-6.0,66,57,45,30.75,30.35,18,4,18,0.00
2013-1-25,38.4,26.0,13.5,24.9,15.1,3.9,81,63,52,30.41,30.20,22,4,22,0.00
2013-1-26,34.4,21.3,7.2,17.2,9.4,1.6,80,61,42,30.49,30.29,14,2,14,0.00
2013-1-27,41.6,33.8,30.3,40.3,29.2,17.3,95,84,57,30.29,29.83,17,3,17,0.19
2013-1-28,53.2,41.6,36.0,52.0,40.6,34.6,97,96,95,29.99,29.67,13,3,13,0.01
2013-1-29,59.9,42.1,33.1,57.6,39.6,31.0,97,91,80,29.72,29.58,23,4,23,0.02
2013-1-30,33.2,23.8,17.0,31.4,21.3,12.5,94,90,82,29.97,29.52,30,8,30,0.00
2013-1-31,16.9,7.1,0.3,12.5,0.6,-7.0,83,74,67,30.51,29.96,28,6,28,0.00
2013-2-1,24.6,5.7,-8.8,17.1,-1.2,-13.8,81,73,64,30.57,30.19,22,4,22,0.00
2013-2-2,26.7,21.2,17.1,20.6,14.6,8.2,89,76,63,30.31,30.09,22,4,22,0.00
2013-2-3,31.3,25.0,18.1,27.4,17.3,12.0,91,72,57,30.30,29.91,26,5,26,0.01
2013-2-4,31.7,24.2,17.5,26.0,18.8,13.2,87,79,74,30.12,29.86,19,2,19,0.00
2013-2-5,41.8,30.5,21.9,34.7,25.4,17.7,89,81,70,30.21,29.92,22,4,22,0.03
2013-2-6,43.7,34.0,22.0,35.0,28.5,19.5,92,81,70,30.24,30.02,14,1,14,0.00
2013-2-7,39.8,34.9,29.4,37.4,32.4,26.3,94,90,77,30.27,29.97,23,4,23,0.52
2013-2-8,30.5,28.3,26.6,26.2,24.5,22.7,88,85,81,30.47,30.27,18,2,18,0.00
2013-2-9,36.4,31.4,27.8,31.0,27.9,24.7,89,87,81,30.38,29.96,17,3,17,0.07
2013-2-10,53.4,38.9,33.3,47.3,34.7,25.2,95,86,63,29.97,29.36,46,11,46,0.21
2013-2-11,34.4,31.6,28.7,25.7,23.7,21.3,79,72,68,30.23,29.68,36,9,40,0.00
2013-2-12,45.0,33.3,23.3,29.0,24.6,18.8,86,71,49,30.25,29.96,18,3,18,0.00
2013-2-13,50.6,37.6,24.9,33.3,28.0,21.6,89,69,49,29.96,29.76,18,2,18,0.00
2013-2-14,43.9,36.5,25.4,32.8,28.6,18.0,80,73,57,30.25,29.78,28,4,29,0.00
2013-2-15,30.2,23.1,17.8,18.1,13.7,9.8,79,67,50,30.42,30.25,21,3,21,0.00
2013-2-16,33.9,22.6,12.4,19.8,14.6,8.2,85,72,51,30.41,30.22,18,1,18,0.00
2013-2-17,44.9,31.6,19.1,27.9,22.1,15.3,92,69,50,30.23,29.78,22,4,22,0.00
2013-2-18,44.9,33.5,17.7,34.8,25.5,9.1,85,72,64,30.00,29.64,33,7,33,0.00
2013-2-19,24.7,17.0,8.5,10.2,6.5,0.6,77,64,49,30.50,30.00,33,9,33,0.00
2013-2-20,23.6,14.0,1.4,12.3,3.8,-4.6,76,64,48,30.59,30.43,12,1,14,0.00
2013-2-21,26.1,21.9,16.7,23.9,16.8,10.7,93,81,68,30.46,29.93,25,9,25,0.00
2013-2-22,30.7,25.2,22.1,28.7,23.0,19.1,93,91,88,30.09,29.86,19,3,20,0.16
2013-2-23,33.2,24.0,15.4,25.6,19.4,12.5,89,83,72,30.09,30.02,16,2,16,0.02
2013-2-24,39.9,26.8,13.3,29.9,21.3,10.2,90,80,64,30.18,30.06,6,0,6,0.00
2013-2-25,40.7,33.3,26.8,32.7,28.3,23.1,87,82,70,30.19,29.96,14,1,14,0.00
2013-2-26,33.9,31.9,30.1,29.9,29.1,27.8,94,89,81,29.96,29.72,32,10,32,0.10
2013-2-27,30.7,28.9,26.2,28.9,26.7,23.5,100,92,87,30.05,29.84,21,6,21,0.08
2013-2-28,32.3,27.4,22.5,26.4,23.0,19.2,90,83,75,30.25,30.05,22,4,23,0.03
2013-3-1,29.2,26.6,24.1,23.9,21.7,17.4,88,81,75,30.42,30.24,17,2,17,0.04
2013-3-2,28.8,21.0,12.1,19.2,14.9,8.5,87,77,65,30.44,30.30,15,1,15,0.03
2013-3-3,33.4,27.5,21.1,24.4,20.6,16.7,89,75,59,30.31,30.03,16,3,16,0.00
2013-3-4,37.1,32.0,26.9,30.6,27.9,24.1,92,85,75,30.04,29.88,21,7,21,0.02
2013-3-5,32.4,29.7,27.1,28.2,24.9,21.3,92,82,69,30.36,30.02,30,7,30,0.07
2013-3-6,30.8,25.1,16.3,23.5,19.5,12.7,86,79,70,30.52,30.36,23,3,23,0.00
2013-3-7,32.1,23.2,13.5,25.4,18.8,10.4,90,83,72,30.50,30.38,14,2,14,0.00
2013-3-8,43.9,34.0,24.6,34.2,28.2,21.4,90,80,60,30.42,30.14,18,3,18,0.02
2013-3-9,42.9,39.1,37.1,41.6,36.9,33.4,95,92,82,30.15,29.68,0,0,0,0.84
2013-3-10,42.2,37.1,33.5,40.9,35.7,31.9,100,95,94,29.82,29.68,0,0,0,0.77
2013-3-11,33.5,29.4,25.5,32.0,26.2,20.8,94,88,79,30.04,29.76,22,2,22,0.00
2013-3-12,35.7,27.8,22.6,28.9,22.2,18.5,86,79,68,30.34,30.03,0,0,0,0.00
2013-3-13,37.1,26.9,18.4,24.8,19.1,14.0,84,73,49,30.55,30.34,17,2,17,0.00
2013-3-14,55.2,38.4,26.6,40.2,29.9,20.6,87,72,53,30.44,30.15,16,4,16,0.01
2013-3-15,55.5,40.0,27.6,45.9,35.2,25.1,93,84,66,30.15,29.79,14,3,14,0.00
2013-3-16,38.1,33.9,28.8,35.4,28.1,22.1,90,79,66,30.28,29.85,23,7,23,0.00
2013-3-17,38.6,31.3,23.8,28.5,23.8,18.2,82,74,62,30.28,29.93,24,8,24,0.00
2013-3-18,35.4,30.4,22.6,32.6,24.4,14.7,93,79,63,30.08,29.81,30,7,30,0.15
2013-3-19,39.6,27.0,17.6,22.0,15.3,9.4,77,62,40,30.33,30.06,22,6,22,0.00
2013-3-20,28.6,22.0,15.6,19.5,10.7,5.1,76,62,47,30.43,30.25,27,8,27,0.00
2013-3-21,35.7,22.9,10.8,19.0,12.8,5.0,80,66,46,30.26,30.09,12,3,12,0.00
2013-3-22,39.0,29.5,18.9,24.5,19.7,14.6,84,68,48,30.18,30.09,14,3,14,0.00
2013-3-23,41.4,32.4,25.6,29.0,24.3,21.0,92,73,48,30.21,30.07,18,5,18,0.00
2013-3-24,31.0,29.6,28.0,28.6,27.4,26.0,92,91,88,30.12,29.96,19,6,21,0.08
2013-3-25,36.1,30.5,27.3,26.9,24.7,22.0,93,79,63,30.34,30.04,19,6,20,0.13
2013-3-26,38.2,29.9,21.4,27.8,22.6,17.3,85,74,55,30.45,30.34,16,4,16,0.00
2013-3-27,47.0,33.8,21.4,32.0,25.8,18.7,91,73,50,30.46,30.35,12,2,12,0.00
2013-3-28,55.9,41.4,28.4,38.5,31.3,24.5,87,69,49,30.41,30.29,14,3,16,0.00
2013-3-29,62.4,46.6,31.1,41.6,34.5,27.7,92,65,39,30.36,30.21,18,4,18,0.00
2013-3-30,52.7,47.3,39.6,50.2,42.8,34.6,94,85,62,30.21,29.93,20,4,20,0.05
2013-3-31,55.4,42.8,34.4,43.0,34.1,23.8,96,74,35,30.16,29.94,26,5,26,0.00
2013-4-1,41.3,31.6,23.6,24.5,20.5,17.9,79,64,45,30.39,30.16,21,6,21,0.00
2013-4-2,47.9,33.2,20.4,26.9,21.8,16.3,87,65,40,30.45,30.38,19,3,19,0.00
2013-4-3,51.5,36.6,24.1,26.6,21.4,18.3,84,57,32,30.51,30.34,17,3,18,0.00
2013-4-4,64.1,46.4,30.7,42.1,31.3,22.0,81,58,35,30.34,30.08,18,5,18,0.00
2013-4-5,60.9,48.1,32.0,35.9,32.2,27.1,84,57,35,30.27,29.93,17,6,18,0.00
2013-4-6,68.5,57.4,46.1,50.6,42.7,35.6,82,58,49,29.93,29.60,33,10,33,0.00
2013-4-7,69.3,51.0,35.2,48.0,41.2,32.6,93,72,45,30.01,29.73,18,4,18,0.00
2013-4-8,72.5,61.6,48.7,59.3,54.2,44.5,95,78,59,29.84,29.67,16,4,17,0.36
2013-4-9,74.0,57.8,45.5,64.8,54.2,43.2,95,88,70,29.90,29.74,24,7,24,0.07
2013-4-10,45.5,41.3,39.8,43.6,39.4,37.9,100,93,90,30.07,29.77,27,7,29,1.72
2013-4-11,43.7,39.6,36.2,41.7,36.7,31.8,95,89,80,29.81,29.67,28,8,28,0.09
2013-4-12,41.4,37.8,35.0,34.9,31.9,26.8,92,79,68,30.04,29.69,23,8,23,0.01
2013-4-13,51.4,42.2,31.6,38.8,31.1,24.6,77,65,52,30.09,29.91,19,6,20,0.01
2013-4-14,71.3,55.1,43.7,55.9,46.9,38.1,91,75,51,29.91,29.48,39,10,39,0.10
2013-4-15,52.7,44.6,41.1,50.2,37.2,31.3,91,76,57,30.12,29.69,19,4,19,0.00
2013-4-16,51.2,42.2,31.4,37.8,33.3,27.5,92,72,55,30.32,30.10,18,5,18,0.00
2013-4-17,51.8,44.1,40.1,50.7,41.1,37.3,96,90,71,30.27,29.68,29,8,29,3.34
2013-4-18,51.6,40.5,35.3,50.5,37.8,30.4,96,90,79,29.80,29.57,27,8,27,0.73
2013-4-19,45.0,37.0,31.6,30.8,28.0,25.2,82,70,51,30.16,29.75,32,10,32,0.00
2013-4-20,48.4,38.0,26.8,31.2,26.8,22.9,87,66,41,30.38,30.16,15,3,15,0.00
2013-4-21,66.5,52.9,40.6,48.2,39.4,30.2,73,61,47,30.36,30.16,31,10,31,0.00
2013-4-22,66.9,55.9,43.0,49.3,45.9,39.4,90,70,49,30.23,29.97,29,7,29,0.08
2013-4-23,42.8,37.8,34.3,39.3,31.5,26.3,89,78,64,30.20,30.05,24,8,24,0.00
2013-4-24,54.6,41.8,28.5,39.5,29.6,23.7,86,64,36,30.26,30.12,27,8,29,0.00
2013-4-25,59.5,47.9,34.8,39.5,35.1,30.8,86,63,42,30.37,30.20,17,5,17,0.00
2013-4-26,66.3,56.9,48.7,52.7,45.3,37.1,81,65,57,30.27,30.18,33,12,33,0.00
2013-4-27,65.2,53.3,42.0,52.0,46.1,39.4,93,78,56,30.28,30.05,16,4,16,0.00
2013-4-28,73.8,58.1,42.4,56.0,49.1,40.5,95,74,50,30.05,29.82,16,5,16,0.00
2013-4-29,80.3,66.6,53.8,63.5,57.3,49.6,87,73,55,29.85,29.61,19,6,19,0.00
2013-4-30,86.0,75.6,64.3,62.7,56.2,51.6,74,52,36,29.86,29.61,34,14,34,0.00
2013-5-1,66.5,55.3,42.0,51.8,44.6,35.7,79,68,54,30.33,29.86,28,10,28,0.00
2013-5-2,42.6,36.2,32.9,36.9,33.5,31.0,94,90,77,30.47,30.30,31,10,31,0.08
2013-5-3,35.3,33.9,32.6,32.6,31.6,30.9,94,91,86,30.40,30.01,21,6,21,0.67
2013-5-4,57.9,46.2,34.4,55.0,44.4,32.6,96,93,85,30.12,29.94,20,4,20,0.40
2013-5-5,65.2,52.0,43.8,59.4,49.3,42.2,96,91,78,30.16,30.08,17,4,17,0.01
2013-5-6,74.3,58.6,46.1,60.7,50.8,44.2,95,78,44,30.16,30.04,12,2,12,0.00
2013-5-7,75.7,63.0,48.0,59.2,51.3,45.5,93,69,40,30.11,30.01,10,1,11,0.00
2013-5-8,72.8,61.4,51.2,60.5,55.5,49.0,94,82,58,30.05,29.96,14,2,14,0.01
2013-5-9,70.5,61.5,56.8,62.1,58.2,53.6,95,89,69,29.97,29.85,16,3,16,0.17
2013-5-10,66.8,55.4,49.7,55.8,50.7,46.9,94,85,62,30.08,29.92,20,5,20,0.01
2013-5-11,58.4,52.1,42.0,49.4,36.9,25.4,94,59,33,30.26,30.01,32,7,32,0.00
2013-5-12,60.4,48.1,34.4,39.9,30.8,26.1,75,53,31,30.33,30.19,18,3,18,0.00
2013-5-13,73.7,58.5,38.2,52.8,43.5,31.6,84,59,41,30.22,29.91,26,7,26,0.00
2013-5-14,90.8,75.8,59.5,71.5,59.8,51.8,84,60,40,29.91,29.64,28,10,28,0.00
2013-5-15,81.1,71.1,59.1,58.0,51.4,45.5,69,51,33,29.93,29.76,16,4,17,0.00
2013-5-16,80.7,69.7,59.4,67.3,60.1,49.4,86,72,58,29.95,29.83,19,4,19,0.00
2013-5-17,78.2,69.6,60.9,67.0,62.4,58.6,94,79,61,29.97,29.87,18,5,18,0.00
2013-5-18,82.8,72.1,60.3,68.2,63.8,57.9,94,76,57,29.99,29.81,19,4,19,0.00
2013-5-19,86.3,73.9,61.4,70.1,65.4,59.3,93,76,50,29.84,29.55,34,8,34,1.48
2013-5-20,79.2,69.3,61.0,66.3,61.7,56.7,94,78,56,29.70,29.57,30,12,30,0.08
2013-5-21,71.3,64.4,55.5,60.8,56.0,49.8,91,75,56,29.73,29.60,25,9,26,0.00
2013-5-22,65.8,58.2,55.2,58.6,53.5,49.8,90,84,74,29.91,29.68,20,5,20,0.02
2013-5-23,71.3,60.1,53.5,55.8,50.5,45.5,94,73,44,30.31,29.91,19,5,19,0.01
2013-5-24,69.0,60.7,46.8,55.4,49.4,42.3,85,67,53,30.43,30.24,20,6,20,0.00
2013-5-25,59.4,54.1,50.7,53.2,50.1,46.9,94,87,65,30.35,30.18,26,6,26,1.71
2013-5-26,61.4,56.5,51.6,59.5,53.7,48.4,94,90,87,30.21,29.94,23,6,23,0.63
2013-5-27,72.3,64.9,59.5,66.5,61.5,57.5,95,89,75,30.05,29.75,29,4,31,0.29
2013-5-28,77.7,67.9,63.9,71.9,65.4,60.4,96,92,80,29.83,29.65,21,4,21,0.70
2013-5-29,81.2,71.8,62.7,74.1,66.9,59.4,93,85,75,29.86,29.69,30,8,30,0.04
2013-5-30,73.8,69.0,63.2,66.9,63.2,60.8,93,82,72,29.73,29.58,33,12,34,0.11
2013-5-31,73.8,67.8,62.4,66.8,63.2,60.2,94,86,71,29.77,29.66,31,10,31,0.00
2013-6-1,68.5,64.0,59.0,63.0,58.1,52.8,91,81,71,29.94,29.65,20,6,21,0.01
2013-6-2,66.3,57.8,50.9,52.8,49.5,46.8,89,74,54,30.11,29.94,19,4,19,0.00
2013-6-3,70.8,60.4,47.2,56.1,51.3,45.6,98,73,54,30.15,30.00,16,3,16,0.00
2013-6-4,68.2,60.6,55.3,62.4,56.0,50.8,92,85,75,30.13,30.01,19,4,19,0.31
2013-6-5,67.5,63.2,59.0,63.3,60.0,57.0,94,89,80,30.06,29.95,13,2,13,0.04
2013-6-6,72.4,61.7,52.0,61.8,55.3,49.8,94,80,61,30.01,29.94,20,3,20,0.00
2013-6-7,69.3,59.3,51.0,58.9,53.8,49.3,95,83,61,30.05,29.96,11,2,13,0.00
2013-6-8,73.7,63.9,51.7,62.3,56.6,50.3,96,78,63,29.99,29.83,15,3,16,0.01
2013-6-9,75.7,65.9,60.5,67.4,61.5,56.9,95,86,67,29.84,29.73,25,7,25,0.24
2013-6-10,74.8,65.6,58.9,67.7,62.0,57.5,96,89,71,29.93,29.78,11,2,11,0.01
2013-6-11,84.8,73.7,62.3,76.9,68.8,60.6,95,85,70,29.94,29.74,26,2,26,0.01
2013-6-12,88.5,76.9,66.1,77.9,70.2,60.5,93,80,65,29.87,29.67,26,6,26,0.03
2013-6-13,81.3,71.9,61.8,68.8,62.5,57.6,87,73,54,30.07,29.84,21,3,21,0.00
2013-6-14,75.0,67.6,62.2,67.2,61.9,57.5,93,82,68,30.12,29.86,29,4,31,0.16
2013-6-15,79.8,70.2,63.7,73.8,66.9,62.2,96,90,76,30.09,29.88,30,5,30,0.60
2013-6-16,84.2,74.0,66.0,71.4,66.1,61.1,95,78,51,30.00,29.93,17,3,17,0.04
2013-6-17,86.8,74.8,62.8,69.6,64.3,57.4,96,73,39,30.00,29.90,14,2,14,0.00
2013-6-18,82.8,72.4,61.0,68.5,61.4,55.4,87,69,49,30.04,29.95,16,2,16,0.00
2013-6-19,84.3,72.9,62.5,69.6,63.9,59.1,90,74,55,30.11,30.00,16,4,16,0.00
2013-6-20,87.3,77.8,67.1,72.6,67.0,61.5,84,70,55,30.07,29.94,24,8,24,0.00
2013-6-21,88.3,79.7,74.9,78.5,71.8,67.0,86,77,68,30.03,29.86,28,9,29,0.00
2013-6-22,90.7,82.5,75.4,78.5,74.2,70.9,87,77,64,30.00,29.86,22,9,22,0.00
2013-6-23,80.2,74.1,65.0,72.8,69.0,62.1,93,84,75,30.03,29.81,22,7,23,0.52
2013-6-24,80.0,71.4,66.9,74.8,68.5,65.0,95,91,82,30.02,29.84,34,4,35,1.36
2013-6-25,87.0,77.6,68.6,77.3,72.6,66.5,95,85,66,29.88,29.73,17,6,17,0.01
2013-6-26,90.5,79.9,71.6,80.8,72.7,66.6,92,79,58,29.85,29.68,18,4,18,0.13
2013-6-27,84.6,75.4,65.4,73.8,68.7,63.2,95,80,63,29.95,29.85,16,2,16,0.00
2013-6-28,84.7,75.5,66.6,66.6,61.9,56.6,89,65,41,29.90,29.77,29,5,29,0.00
2013-6-29,76.3,69.2,64.4,66.7,61.3,58.2,90,76,66,29.92,29.76,28,6,28,0.06
2013-6-30,79.1,68.0,59.0,64.0,57.6,54.2,89,71,47,30.10,29.92,18,5,18,0.00
2013-7-1,81.3,69.2,55.9,62.9,55.8,51.0,87,65,38,30.16,30.09,20,3,20,0.00
2013-7-2,81.3,65.8,55.4,66.8,59.6,52.8,92,81,59,30.16,30.05,12,1,12,0.01
2013-7-3,79.7,67.8,57.4,68.1,60.9,55.3,94,80,51,30.10,30.01,10,1,11,0.01
2013-7-4,83.0,72.7,59.8,68.1,62.4,57.2,93,72,49,30.08,29.98,14,4,14,0.00
2013-7-5,84.8,75.4,64.9,70.1,64.4,58.5,83,70,56,30.04,29.94,20,6,20,0.00
2013-7-6,88.5,77.7,67.3,74.3,67.7,61.1,84,72,57,30.00,29.89,18,6,19,0.00
2013-7-7,90.2,79.7,70.0,75.4,70.3,65.6,87,74,54,29.95,29.89,22,9,22,0.00
2013-7-8,84.2,79.1,75.4,77.3,72.6,67.7,93,81,72,29.99,29.92,14,5,15,0.03
2013-7-9,89.8,80.5,74.1,81.2,75.9,71.5,94,86,72,30.00,29.87,20,4,20,0.09
2013-7-10,82.5,75.7,63.3,77.2,65.4,59.1,95,72,47,30.07,29.90,17,3,18,0.00
2013-7-11,82.5,71.3,59.0,67.2,60.6,56.3,93,71,48,30.15,30.06,13,2,13,0.00
2013-7-12,84.5,73.9,63.6,68.6,62.6,58.2,86,69,52,30.13,30.03,18,5,19,0.00
2013-7-13,77.0,70.9,65.8,67.9,62.3,57.3,83,74,64,30.11,30.05,13,4,13,0.00
2013-7-14,85.7,74.3,61.4,71.2,64.7,58.7,91,73,54,30.20,30.10,14,2,14,0.00
2013-7-15,88.7,77.0,65.6,76.9,69.9,62.4,91,79,63,30.26,30.16,14,2,14,0.00
2013-7-16,91.0,81.5,72.5,78.2,73.8,69.6,93,79,60,30.28,30.22,10,3,10,0.00
2013-7-17,93.0,82.8,74.3,79.2,73.8,70.3,92,76,53,30.32,30.19,14,3,14,0.00
2013-7-18,92.8,83.6,75.0,76.7,72.7,70.0,87,71,50,30.20,29.95,20,7,20,0.00
2013-7-19,93.2,83.3,73.7,78.5,72.1,65.6,80,69,55,29.96,29.82,18,6,18,0.00
2013-7-20,87.1,75.7,61.5,73.0,65.6,59.2,93,72,48,29.99,29.88,11,1,11,0.00
2013-7-21,80.7,71.8,65.8,71.9,66.7,62.5,93,84,68,29.95,29.83,13,2,13,0.15
2013-7-22,91.0,76.5,66.0,78.6,70.0,62.2,96,82,59,29.91,29.75,33,5,33,0.02
2013-7-23,75.9,69.5,62.6,65.8,61.9,57.7,90,77,59,30.02,29.78,13,2,16,0.00
2013-7-24,79.3,68.2,57.1,64.6,59.4,54.8,93,75,53,30.10,30.01,11,1,11,0.00
2013-7-25,85.8,73.6,61.7,69.6,64.5,58.1,92,75,52,30.10,29.99,19,6,19,0.00
2013-7-26,80.0,71.2,58.2,70.8,62.5,53.8,94,76,49,30.07,29.97,23,5,23,0.18
2013-7-27,71.8,60.8,52.4,54.7,51.3,47.5,93,73,46,30.12,30.03,23,3,23,0.00
2013-7-28,77.2,63.3,50.6,57.6,52.4,47.2,89,70,47,30.11,30.02,19,2,19,0.00
2013-7-29,75.1,65.4,50.8,62.4,57.2,48.5,94,76,62,30.17,30.10,14,2,14,0.00
2013-7-30,70.6,66.6,63.5,67.2,64.2,60.2,95,92,81,30.13,30.06,8,2,8,0.22
2013-7-31,83.0,71.9,65.5,69.9,66.4,64.3,96,84,60,30.16,30.03,12,2,12,0.00
2013-8-1,86.5,74.9,61.0,69.6,65.2,59.5,96,74,50,30.10,29.93,12,3,14,0.00
2013-8-2,84.0,73.6,64.8,71.0,66.0,59.1,93,78,61,30.03,29.91,19,3,20,0.00
2013-8-3,80.7,70.3,61.5,62.9,58.9,53.5,92,70,42,30.21,30.03,12,2,12,0.00
2013-8-4,82.7,70.4,54.9,59.6,56.7,52.6,93,65,41,30.23,30.09,16,2,16,0.00
2013-8-5,84.8,73.7,65.8,72.7,67.5,59.1,97,81,65,30.09,29.82,20,3,20,0.00
2013-8-6,92.5,76.9,66.6,75.6,70.5,65.5,98,82,52,29.91,29.79,26,2,26,0.36
2013-8-7,82.5,73.4,65.0,72.3,67.2,61.4,96,82,61,30.02,29.81,19,3,19,0.00
2013-8-8,80.5,69.6,58.3,67.2,62.1,55.9,93,78,57,30.06,29.98,10,1,10,0.00
2013-8-9,81.8,71.0,61.7,71.8,64.5,58.7,96,81,64,30.16,30.02,14,1,14,0.00
2013-8-10,81.6,69.4,55.4,66.6,60.0,53.4,94,74,50,30.24,30.13,11,1,11,0.00
2013-8-11,85.7,74.6,64.4,69.9,63.9,59.2,85,70,52,30.17,30.01,16,7,16,0.00
2013-8-12,85.2,73.3,61.5,69.9,64.1,57.0,93,74,49,30.07,29.99,18,3,18,0.02
2013-8-13,78.3,66.0,54.9,63.2,57.4,51.6,94,75,52,30.22,30.06,17,2,17,0.00
2013-8-14,76.6,63.4,50.0,58.0,52.2,47.5,93,70,39,30.27,30.17,10,1,11,0.00
2013-8-15,74.1,65.4,55.5,59.7,55.9,52.4,90,72,58,30.19,30.13,12,3,14,0.00
2013-8-16,79.3,64.9,52.4,60.7,55.2,50.3,94,74,45,30.24,30.17,12,1,12,0.00
2013-8-17,84.3,67.6,52.9,63.1,56.8,50.6,94,71,42,30.26,30.16,12,1,12,0.00
2013-8-18,83.5,69.9,57.2,63.2,59.0,54.3,91,70,47,30.22,30.10,15,2,15,0.00
2013-8-19,86.3,78.5,70.6,69.0,65.9,62.6,83,66,50,30.13,30.01,14,4,14,0.00
2013-8-20,90.5,78.4,68.4,72.3,67.2,62.7,84,70,52,30.05,29.96,22,8,22,0.00
2013-8-21,92.5,80.8,71.4,73.3,69.6,66.3,85,70,50,30.04,29.96,20,8,20,0.00
2013-8-22,80.7,75.2,67.0,71.5,68.9,63.7,94,81,72,30.12,30.00,16,3,16,0.05
2013-8-23,90.0,76.2,65.4,75.1,69.5,63.9,96,81,60,30.15,30.05,14,3,14,0.00
2013-8-24,91.4,79.5,70.4,76.2,71.2,67.3,91,77,57,30.17,30.07,14,4,14,0.00
2013-8-25,95.5,82.2,70.9,75.1,70.1,65.6,85,68,45,30.20,30.08,19,8,21,0.00
2013-8-26,97.3,85.4,74.5,73.5,70.4,68.0,84,63,41,30.13,29.96,17,8,17,0.00
2013-8-27,98.3,85.9,75.2,71.1,69.3,66.5,82,60,37,29.99,29.87,25,10,25,0.00
2013-8-28,97.3,84.0,72.9,75.2,68.7,65.4,84,62,38,30.00,29.92,14,4,14,0.00
2013-8-29,98.0,83.6,69.4,73.8,70.2,64.3,95,67,36,30.05,29.92,16,2,16,0.00
2013-8-30,102.5,87.7,76.1,76.8,71.7,65.2,85,63,31,29.93,28.99,15,4,15,0.00
2013-8-31,91.8,79.6,70.5,75.0,71.6,68.5,95,78,53,29.84,29.77,10,2,10,0.00
2013-9-1,84.0,74.9,63.3,69.7,63.7,56.5,96,70,40,29.96,29.71,36,4,36,0.07
2013-9-2,78.8,65.9,55.4,59.3,55.8,49.9,95,74,37,30.08,29.96,15,3,15,0.00
2013-9-7,80.0,78.1,76.7,72.5,72.1,71.8,85,82,78,29.89,29.88,4,0,4,0.00
2013-9-8,89.8,79.0,70.2,73.8,71.2,68.2,95,78,57,29.94,29.83,14,3,15,0.00
2013-9-9,100.2,85.5,72.7,71.7,66.6,61.3,93,58,29,29.88,29.80,23,8,23,0.00
2013-9-10,98.3,85.1,72.8,67.8,64.2,61.1,72,52,30,30.00,29.88,30,8,31,0.00
2013-9-11,87.3,77.6,71.3,72.9,68.5,64.3,88,74,58,30.10,29.99,15,2,15,0.00
2013-9-12,82.0,71.4,59.0,67.1,56.0,48.2,92,63,33,30.19,30.07,21,4,21,0.00
2013-9-13,75.5,64.3,51.6,50.6,46.5,43.4,82,55,36,30.25,30.14,11,2,11,0.00
2013-9-14,80.5,63.8,48.3,51.2,46.7,41.6,83,57,33,30.19,29.97,20,5,20,0.00
2013-9-15,69.8,63.3,54.6,63.6,56.7,50.3,93,80,56,30.27,29.91,20,6,20,0.81
2013-9-16,62.6,57.0,52.2,55.5,52.8,49.5,93,86,74,30.42,30.27,13,2,13,0.01
2013-9-17,64.9,58.1,52.6,63.1,55.8,50.4,94,92,85,30.32,30.05,21,3,21,0.15
2013-9-18,90.0,78.4,64.9,73.1,69.2,63.1,94,75,56,30.06,29.79,23,10,24,0.00
2013-9-19,86.0,74.7,65.2,73.1,68.1,62.0,95,81,61,29.89,29.69,27,8,29,1.31
2013-9-20,69.6,60.7,51.8,64.6,54.1,48.2,95,80,60,30.02,29.88,21,4,21,0.00
2013-9-21,70.9,56.5,44.3,55.0,47.7,41.3,92,74,48,30.08,29.95,15,2,15,0.01
2013-9-22,77.7,62.1,48.0,58.8,52.1,45.2,93,72,48,30.05,29.93,17,3,17,0.00
2013-9-23,77.1,63.5,50.0,58.3,52.4,46.7,90,69,45,30.02,29.89,21,4,21,0.00
2013-9-24,78.2,63.7,53.4,61.8,54.7,48.8,85,73,52,29.95,29.86,17,3,17,0.00
2013-9-25,79.8,65.0,51.4,63.3,56.5,48.9,93,76,54,29.98,29.87,16,2,16,0.00
2013-9-26,84.5,70.4,56.6,67.5,60.7,52.8,88,73,51,29.99,29.90,23,5,23,0.00
2013-9-27,85.3,73.7,63.5,68.2,63.0,59.4,88,71,50,30.02,29.91,20,6,22,0.00
2013-9-28,69.3,62.5,49.9,65.8,58.4,47.9,94,87,77,30.09,29.83,25,5,26,0.15
2013-9-29,74.3,58.8,44.2,56.4,49.3,42.6,96,74,43,30.14,29.99,17,3,17,0.01
2013-9-30,77.8,64.2,51.8,59.6,53.9,48.1,90,71,45,29.99,29.80,22,9,22,0.00
2013-10-1,81.9,68.2,59.3,64.7,59.7,55.3,92,76,52,30.01,29.85,18,5,19,0.00
2013-10-2,85.0,70.3,56.8,68.5,59.7,51.1,87,70,49,30.07,29.90,15,3,15,0.00
2013-10-3,81.0,70.9,64.7,70.0,65.8,62.3,95,85,63,29.91,29.79,20,4,20,0.02
2013-10-4,78.8,71.2,63.5,71.9,67.0,61.4,95,87,77,29.92,29.77,23,5,23,1.42
2013-10-5,76.2,57.5,48.2,68.7,47.5,39.2,88,70,49,29.95,29.82,28,8,28,0.01
2013-10-6,49.2,47.4,43.8,47.1,42.0,37.3,94,82,68,29.95,29.80,19,5,19,0.09
2013-10-7,73.3,56.4,43.0,53.4,47.3,40.0,92,74,42,30.11,29.95,17,3,17,0.00
2013-10-8,76.1,63.0,52.2,54.3,49.7,46.2,81,64,40,30.14,30.04,28,9,29,0.00
2013-10-9,75.2,61.9,51.4,57.2,50.8,47.4,88,69,45,30.17,30.08,16,5,16,0.00
2013-10-10,77.1,62.1,48.0,59.0,51.7,44.0,89,70,48,30.13,29.95,16,3,16,0.00
2013-10-11,76.0,65.7,55.5,64.2,58.7,51.7,91,79,65,29.96,29.78,24,8,25,0.00
2013-10-12,67.8,57.4,43.9,62.8,45.2,37.5,87,66,37,30.30,29.83,29,3,29,0.00
2013-10-13,66.8,50.3,35.7,44.1,37.5,32.0,92,65,34,30.51,30.30,11,1,11,0.00
2013-10-14,65.8,53.9,39.5,48.2,40.2,33.1,80,61,43,30.42,29.91,23,5,23,0.00
2013-10-15,61.3,53.9,48.1,57.6,47.2,41.9,92,78,64,29.99,29.83,28,10,29,0.09
2013-10-16,51.5,47.8,42.2,45.2,43.0,39.4,91,83,77,30.07,29.98,18,3,18,0.00
2013-10-17,63.8,50.1,40.8,46.9,41.1,38.1,92,74,42,30.02,29.88,19,3,19,0.00
2013-10-18,50.1,45.1,38.1,44.1,36.0,33.0,87,71,53,30.12,29.99,23,4,23,0.00
2013-10-19,57.6,45.8,36.3,39.3,35.2,32.3,88,68,43,30.04,29.86,25,7,25,0.00
2013-10-20,61.4,49.4,38.2,49.6,40.5,32.8,84,72,57,29.98,29.77,19,3,19,0.00
2013-10-21,51.7,42.7,36.1,39.1,31.6,26.2,83,66,44,30.14,29.98,20,3,20,0.00
2013-10-22,43.7,40.1,36.2,39.0,36.0,32.5,92,85,76,30.14,29.93,16,4,16,0.03
2013-10-23,44.9,37.9,29.6,36.7,31.8,25.1,90,79,55,30.22,30.13,20,2,20,0.04
2013-10-24,44.6,37.0,30.6,32.2,28.6,24.3,91,72,53,30.46,30.22,18,3,18,0.00
2013-10-25,56.6,42.3,28.7,34.9,30.3,25.8,95,66,41,30.50,30.12,25,8,29,0.00
2013-10-26,54.2,44.8,30.6,35.2,31.1,25.9,83,60,41,30.22,30.02,23,6,23,0.00
2013-10-27,62.1,43.6,27.0,39.9,32.5,24.6,93,68,40,30.21,29.95,21,5,22,0.00
2013-10-28,58.2,45.1,34.8,40.5,35.7,30.1,92,71,49,30.35,30.06,18,4,18,0.00
2013-10-29,60.6,48.3,39.1,50.0,42.0,35.2,89,79,64,30.35,30.08,15,4,15,0.00
2013-10-30,61.3,56.3,52.8,59.9,54.7,50.0,98,94,89,30.08,29.68,20,4,20,0.74
2013-10-31,62.5,47.6,43.2,61.3,45.2,39.9,96,91,85,29.69,29.51,15,3,15,0.05
2013-11-1,56.6,47.6,41.8,43.8,40.7,37.9,91,78,56,29.92,29.58,20,3,20,0.00
2013-11-2,55.1,45.6,34.6,40.5,37.0,31.7,92,73,48,30.21,29.92,19,3,19,0.00
2013-11-3,58.0,45.0,32.9,41.1,35.5,30.8,94,72,46,30.24,30.02,27,7,29,0.00
2013-11-4,53.7,49.5,45.4,48.5,44.3,37.2,91,82,64,30.20,30.00,23,7,23,0.24
2013-11-5,58.0,51.3,45.5,56.3,48.9,41.9,96,92,84,30.23,29.83,20,7,24,0.44
2013-11-6,54.9,39.8,31.2,52.2,33.4,26.7,92,79,53,30.35,29.84,27,5,27,0.04
2013-11-7,48.7,37.0,29.9,36.9,30.8,25.7,92,79,58,30.41,30.32,19,3,19,0.00
2013-11-8,57.7,44.4,28.7,41.3,33.4,24.3,86,67,49,30.38,29.88,32,9,33,0.00
2013-11-9,58.2,49.4,39.3,42.3,37.3,31.6,75,64,48,30.36,29.91,21,6,23,0.00
2013-11-10,49.4,40.2,27.5,35.4,30.9,23.6,87,70,53,30.51,30.24,16,4,16,0.00
2013-11-11,50.0,35.9,17.6,40.1,27.8,12.5,87,73,58,30.78,30.16,23,7,23,0.00
2013-11-12,30.7,20.5,11.5,18.5,13.3,7.6,84,74,53,30.97,30.71,14,3,14,0.00
2013-11-13,49.9,35.5,23.2,23.7,18.9,14.2,69,52,32,30.71,30.16,27,13,27,0.00
2013-11-14,53.6,42.8,36.1,33.5,28.9,22.9,76,58,44,30.16,29.97,23,9,23,0.00
2013-11-15,58.2,45.1,33.2,39.9,34.6,27.6,84,67,48,30.00,29.81,17,6,18,0.00
2013-11-16,66.3,57.0,44.4,57.9,51.9,39.0,93,83,74,29.81,29.39,34,12,34,0.44
2013-11-17,57.7,49.8,43.3,55.7,45.4,36.9,95,85,71,30.01,29.30,25,5,25,0.78
2013-11-18,47.1,38.5,29.3,37.4,31.8,26.5,95,77,57,30.36,30.01,19,4,19,0.00
2013-11-19,52.3,41.0,30.1,35.3,31.2,27.4,95,70,48,30.36,30.12,22,7,22,0.00
2013-11-20,43.7,39.2,35.5,37.7,33.7,26.2,96,82,53,30.13,29.98,19,6,19,0.54
2013-11-21,40.7,33.1,27.6,38.6,31.7,26.3,97,94,91,30.50,30.09,19,4,19,0.02
2013-11-22,27.5,22.2,15.7,26.3,18.2,11.6,95,84,71,30.73,30.50,18,4,18,0.00
2013-11-23,17.8,12.8,4.6,12.9,6.5,1.1,85,76,63,30.94,30.69,20,5,20,0.00
2013-11-24,28.2,17.3,3.0,16.0,10.0,-0.2,91,74,56,30.90,30.40,21,8,22,0.00
2013-11-25,38.2,30.7,25.2,28.8,23.1,15.9,89,73,65,30.40,30.19,24,8,25,0.01
2013-11-26,29.9,24.9,15.9,25.4,17.2,9.6,90,73,54,30.46,30.21,29,6,29,0.00
2013-11-27,27.7,20.1,9.9,16.6,11.4,5.5,83,69,53,30.51,30.21,21,6,22,0.00
2013-11-28,33.7,25.1,15.0,20.9,17.1,11.1,86,72,57,30.62,30.17,18,5,18,0.00
2013-11-29,40.8,27.1,11.8,25.9,19.6,8.4,88,74,53,30.65,30.34,17,4,19,0.00
2013-11-30,52.0,37.1,26.6,35.9,29.2,23.8,90,74,53,30.34,30.13,15,4,15,0.00
2013-12-1,43.2,34.0,24.6,32.5,28.5,21.8,92,81,64,30.24,30.00,9,1,9,0.00
2013-12-2,48.7,38.9,33.1,39.6,33.6,28.6,92,81,70,30.00,29.63,17,3,17,0.00
2013-12-3,46.4,40.3,36.0,43.0,38.3,34.1,98,93,87,29.72,29.60,10,1,10,0.00
2013-12-4,40.6,33.5,20.3,39.5,31.6,14.8,96,93,79,30.00,29.55,22,4,22,0.02
2013-12-5,20.3,15.4,10.1,14.7,7.7,2.3,79,71,63,30.52,29.99,29,8,29,0.00
2013-12-6,14.0,8.8,3.5,3.0,0.7,-3.3,77,69,58,30.81,30.50,18,5,18,0.00
2013-12-7,14.0,5.7,-3.6,3.5,-1.8,-7.7,82,71,53,30.92,30.66,12,3,12,0.00
2013-12-8,18.9,15.7,11.6,16.0,11.1,2.8,91,82,66,30.66,30.13,17,5,18,0.00
2013-12-9,15.7,6.1,0.2,12.9,-0.3,-5.8,89,75,59,30.43,30.18,19,6,19,0.00
2013-12-10,22.9,17.8,2.7,14.8,8.8,-3.4,76,68,53,30.36,30.15,27,7,28,0.00
2013-12-11,22.5,8.4,-4.3,16.5,1.2,-9.5,85,72,58,30.75,30.32,21,5,21,0.00
2013-12-12,29.6,17.1,3.1,19.0,9.4,-2.6,88,72,62,30.67,30.26,19,6,19,0.01
2013-12-13,36.4,23.7,12.1,28.8,19.6,8.8,90,84,74,30.26,30.06,17,4,18,0.00
2013-12-14,25.7,20.7,14.8,22.0,16.9,10.5,89,85,78,30.27,30.12,22,6,22,0.00
2013-12-15,19.1,15.5,11.6,11.9,9.5,6.1,83,77,70,30.27,30.16,18,3,18,0.00
2013-12-16,26.7,20.2,14.0,23.0,16.4,9.8,92,85,83,30.24,30.09,13,3,13,0.00
2013-12-17,37.6,29.1,17.9,28.5,20.1,12.5,90,71,42,30.31,30.18,31,4,31,0.00
2013-12-18,51.7,34.1,16.0,32.8,24.5,12.2,93,70,44,30.28,29.83,28,6,28,0.00
2013-12-19,39.5,33.2,28.1,33.2,29.9,25.1,92,88,77,29.94,29.82,18,4,18,0.01
2013-12-20,30.6,26.2,22.9,28.5,24.0,20.4,99,91,90,30.00,29.85,18,5,18,0.00
2013-12-21,26.7,24.2,21.5,26.6,21.4,18.5,100,89,86,30.00,29.81,18,5,18,0.00
2013-12-22,26.7,20.2,7.6,25.0,16.8,2.2,93,86,78,30.44,29.83,21,6,21,0.00
2013-12-23,7.6,2.1,-9.7,2.1,-6.0,-17.4,79,69,54,30.72,30.43,19,4,19,0.00
2013-12-24,16.6,-0.2,-21.1,13.7,-7.3,-26.6,88,72,60,30.72,30.36,17,4,17,0.00
2013-12-25,33.3,24.9,16.7,28.8,20.8,13.7,91,85,74,30.36,30.26,20,5,20,0.00
2013-12-26,38.9,26.4,15.3,28.5,20.5,11.1,89,79,63,30.35,30.19,23,4,23,0.18
2013-12-27,46.7,30.4,10.8,31.5,22.8,7.9,91,75,54,30.36,30.19,21,5,21,0.04
2013-12-28,48.4,38.9,27.7,34.7,30.7,23.2,86,73,57,30.19,29.88,27,8,27,0.00
2013-12-29,31.3,11.4,0.2,27.2,3.8,-7.9,85,71,54,30.46,29.99,30,9,30,0.00
2013-12-30,16.6,7.5,-2.6,12.8,2.2,-8.9,85,79,68,30.46,30.27,12,2,12,0.00
2013-12-31,15.6,9.9,5.4,9.9,5.6,1.9,86,82,76,30.45,30.30,17,4,17,0.00
2014-1-1,11.3,9.4,6.9,7.3,5.4,3.1,86,84,81,30.47,30.32,18,7,18,0.00
2014-1-2,8.1,3.3,-11.6,4.7,-2.2,-16.4,92,77,66,30.63,30.45,16,4,16,0.00